Eelde, Netherlands

12:14 AM CEST on October 22, 2017 (GMT +0200)
Eelde

Weather History for EHGG - May, 2013

Change the Weather History Date:

Monday, May 20, 2013

  Actual Average Record
Temperature  
Mean Temperature 53 °F -  
Max Temperature 57 °F 65 °F 81 °F (2014)
Min Temperature 49 °F 47 °F 33 °F (2008)
Degree Days  
Heating Degree Days 12    
Growing Degree Days 3 (Base 50)    
Moisture  
Dew Point 51 °F    
Average Humidity 95    
Maximum Humidity 100    
Minimum Humidity 84    
Precipitation  
Precipitation 0.00 in 0.09 in - ()
Sea Level Pressure  
Sea Level Pressure 29.75 in    
Wind  
Wind Speed 4 mph ()    
Max Wind Speed 9 mph    
Max Gust Speed -    
Visibility 4.1 miles    
Events Fog    
Averages and records for this station are not official NWS values.
T = Trace of Precipitation, MM = Missing Value Source: Averaged Metar Reports

Daily Weather History Graph

Daily Weather History Graph

Search for Another Location

Airport or City:

Trip Planner

Search our weather history database for the weather conditions in past years. The results will help you decide how hot, cold, wet, or windy it might be!

Date:

Astronomy

May. 20, 2013 Rise Set
Actual Time 5:27 AM CEST 9:34 PM CEST
Civil Twilight 4:41 AM CEST 10:19 PM CEST
Nautical Twilight 3:35 AM CEST 11:26 PM CEST
Astronomical Twilight 2:02 AM CEST 12:57 AM CEST
Moon 3:43 PM CEST (5/20) 2:59 AM CEST (5/20)
Length of Visible Light 17h 38m
Length of Day
16h 06m
Waxing Gibbous, 72% of the Moon is Illuminated
May 20
Waxing Gibbous
May 25
Full
May 31
Last Quarter
Jun 8
New
Jun 16
First Quarter

Hourly Weather History & Observations

Time (CEST) Temp. Dew Point Humidity Pressure Visibility Wind Dir Wind Speed Gust Speed Precip Events Conditions
12:25 AM 50.0 °F 50.0 °F 100% 29.77 in - NNW 6.9 mph - N/A   Overcast
12:55 AM 50.0 °F 50.0 °F 100% 29.77 in - NW 8.1 mph - N/A   Overcast
1:25 AM 50.0 °F 50.0 °F 100% 29.77 in 1.5 mi WNW 3.5 mph - N/A   Mostly Cloudy
1:55 AM 50.0 °F 50.0 °F 100% 29.74 in 1.0 mi WSW 2.3 mph - N/A   Overcast
2:00 AM 49 °F 49 °F 100% 29.77 in 0 mi West 2.2 mph - - Fog Fog
2:25 AM 50.0 °F 50.0 °F 100% 29.74 in 1.1 mi West 3.5 mph - N/A   Overcast
2:55 AM 50.0 °F 50.0 °F 100% 29.74 in 1.5 mi WNW 4.6 mph - N/A   Mostly Cloudy
3:25 AM 50.0 °F 50.0 °F 100% 29.74 in - NW 3.5 mph - N/A   Overcast
3:55 AM 50.0 °F 50.0 °F 100% 29.71 in 1.7 mi WNW 3.5 mph - N/A   Overcast
4:25 AM 50.0 °F 50.0 °F 100% 29.74 in 1.4 mi WNW 3.5 mph - N/A   Overcast
4:55 AM 50.0 °F 50.0 °F 100% 29.71 in 1.4 mi NW 4.6 mph - N/A   Overcast
5:00 AM 50 °F 49 °F 96% 29.74 in 1 mi NNW 4.5 mph - -   Mist
5:25 AM 50.0 °F 50.0 °F 100% 29.71 in 0.8 mi NW 3.5 mph - N/A   Overcast
5:55 AM 50.0 °F 50.0 °F 100% 29.71 in 0.6 mi WNW 2.3 mph - N/A Fog Fog
6:25 AM 50.0 °F 50.0 °F 100% 29.71 in 0.4 mi WNW 1.2 mph - N/A Fog Fog
6:55 AM 50.0 °F 50.0 °F 100% 29.71 in 0.6 mi WNW 1.2 mph - N/A Fog Fog
7:25 AM 50.0 °F 50.0 °F 100% 29.71 in 0.4 mi WNW 2.3 mph - N/A Fog Fog
7:55 AM 50.0 °F 50.0 °F 100% 29.71 in - West 1.2 mph - N/A Fog Fog
8:00 AM 50 °F 50 °F 100% 29.74 in 0 mi West 2.2 mph - - Fog Fog
8:25 AM 50.0 °F 50.0 °F 100% 29.74 in 1.1 mi SSW 1.2 mph - N/A   Overcast
8:55 AM 50.0 °F 50.0 °F 100% 29.74 in 0.7 mi South 2.3 mph - N/A   Overcast
9:25 AM 51.8 °F 51.8 °F 100% 29.74 in 0.9 mi South 4.6 mph - N/A   Overcast
9:55 AM 51.8 °F 50.0 °F 94% 29.74 in 1.7 mi SSW 3.5 mph - N/A   Overcast
10:25 AM 51.8 °F 50.0 °F 94% 29.74 in 2.8 mi WNW 2.3 mph - N/A   Overcast
10:55 AM 51.8 °F 50.0 °F 94% 29.74 in 3.1 mi SW 2.3 mph - N/A   Overcast
11:00 AM 52 °F 51 °F 95% 29.75 in 3 mi West 2.2 mph - -   Mist
11:25 AM 51.8 °F 51.8 °F 100% 29.74 in 4.3 mi WSW 3.5 mph - N/A   Overcast
11:55 AM 53.6 °F 51.8 °F 94% 29.74 in 5.0 mi South 4.6 mph - N/A   Overcast
12:25 PM 53.6 °F 51.8 °F 94% 29.74 in 5.0 mi WSW 3.5 mph - N/A   Overcast
12:55 PM 53.6 °F 51.8 °F 94% 29.74 in 5.6 mi WSW 3.5 mph - N/A   Overcast
1:25 PM 53.6 °F 51.8 °F 94% 29.74 in 5.6 mi WSW 4.6 mph - N/A   Overcast
1:55 PM 55.4 °F 51.8 °F 88% 29.74 in 5.6 mi SW 4.6 mph - N/A   Overcast
2:00 PM 54 °F 52 °F 90% 29.76 in 6 mi SW 4.5 mph - -   Mist
2:25 PM 55.4 °F 51.8 °F 88% 29.74 in 5.6 mi SW 4.6 mph - N/A   Overcast
2:55 PM 55.4 °F 53.6 °F 94% 29.74 in 5.6 mi West 4.6 mph - N/A   Overcast
3:25 PM 55.4 °F 53.6 °F 94% 29.77 in 6.2 mi West 4.6 mph - N/A   Overcast
3:55 PM 55.4 °F 53.6 °F 94% 29.77 in 6.2 mi SW 5.8 mph - N/A   Overcast
4:25 PM 57.2 °F 53.6 °F 88% 29.77 in 6.2 mi SW 5.8 mph - N/A   Overcast
4:55 PM 57.2 °F 53.6 °F 88% 29.77 in 6.2 mi WSW 5.8 mph - N/A   Overcast
5:00 PM 57 °F 53 °F 84% 29.77 in 7 mi SW 4.5 mph - -   Overcast
5:25 PM 57.2 °F 53.6 °F 88% 29.77 in 6.2 mi SSW 5.8 mph - N/A   Overcast
5:55 PM 57.2 °F 53.6 °F 88% 29.77 in 6.2 mi SSW 8.1 mph - N/A   Overcast
6:25 PM 57.2 °F 53.6 °F 88% 29.77 in 6.2 mi SSW 8.1 mph - N/A   Overcast
6:55 PM 57.2 °F 53.6 °F 88% 29.74 in 6.2 mi SW 8.1 mph - N/A   Overcast
7:25 PM 57.2 °F 53.6 °F 88% 29.74 in 6.2 mi SW 9.2 mph - N/A   Overcast
7:55 PM 55.4 °F 53.6 °F 94% 29.77 in 6.2 mi WSW 9.2 mph - N/A   Mostly Cloudy
8:00 PM 56 °F 53 °F 86% 29.78 in 19 mi WSW 8.9 mph - -   Partly Cloudy
8:25 PM 55.4 °F 53.6 °F 94% 29.77 in 6.2 mi WSW 6.9 mph - N/A   Overcast
8:55 PM 55.4 °F 51.8 °F 88% 29.77 in 6.2 mi WSW 8.1 mph - N/A   Overcast
9:25 PM 55.4 °F 51.8 °F 88% 29.77 in 6.2 mi WSW 6.9 mph - N/A   Overcast
9:55 PM 55.4 °F 51.8 °F 88% 29.77 in 6.2 mi SW 5.8 mph - N/A   Overcast
10:25 PM 53.6 °F 51.8 °F 94% 29.77 in 6.2 mi SSW 4.6 mph - N/A   Overcast
10:55 PM 53.6 °F 53.6 °F 100% 29.80 in 5.6 mi SW 3.5 mph - N/A   Mostly Cloudy
11:00 PM 54 °F 53 °F 94% 29.81 in 6 mi WSW 4.5 mph - -   Mist
11:25 PM 53.6 °F 51.8 °F 94% 29.80 in 5.0 mi West 5.8 mph - N/A   Overcast
11:55 PM 53.6 °F 51.8 °F 94% 29.80 in 3.7 mi WSW 4.6 mph - N/A   Overcast